DW9425 Weather Reports


Display with metric or nautical units.
time (UTC)temp
F
wind
direction
speed
MPH
gust
MPH
rain 1hr
in
rain 24hr
in
rain mn
in
humidity
%
barometer
mb
20260508061505 47 198 0.0 4.0 0.00 0.00 0.00 28 1016.8
20260508060003 48 227 0.0 1.0 0.00 0.00 0.00 27 1016.8
20260508054501 49 227 0.0 2.0 0.00 0.00 0.00 26 1016.8
20260508053107 49 227 0.0 2.0 0.00 0.00 0.00 25 1016.7
20260508051607 50 227 0.0 2.0 0.00 0.00 0.00 24 1016.8
20260508044612 51 227 2.0 4.0 0.00 0.00 0.00 21 1016.7
20260508043058 52 227 0.0 0.0 0.00 0.00 0.00 20 1016.9
20260508041600 54 227 0.0 1.0 0.00 0.00 0.00 17 1016.8
20260508040057 55 227 0.0 2.0 0.00 0.00 0.00 14 1016.8
20260508034600 56 227 1.0 3.0 0.00 0.00 0.00 13 1016.7
20260508033101 58 227 3.0 6.0 0.00 0.00 0.00 12 1016.4
20260508031557 59 253 3.0 9.0 0.00 0.00 0.00 12 1016.2
20260508030056 60 238 7.0 12.0 0.00 0.00 0.00 11 1016.0
20260508024603 61 238 9.0 15.0 0.00 0.00 0.00 10 1015.8
20260508023056 62 232 8.0 16.0 0.00 0.00 0.00 10 1015.6
20260508021559 63 231 9.0 15.0 0.00 0.00 0.00 9 1015.4
20260508020053 64 242 9.0 14.0 0.00 0.00 0.00 9 1015.3
20260508014553 66 232 7.0 21.0 0.00 0.00 0.00 9 1015.2
20260508013051 68 249 7.0 17.0 0.00 0.00 0.00 9 1015.1
20260508011605 68 208 8.0 16.0 0.00 0.00 0.00 9 1015.1
20260508010049 69 219 8.0 17.0 0.00 0.00 0.00 9 1015.1
20260508004555 69 219 9.0 15.0 0.00 0.00 0.00 10 1015.1
20260508003047 70 220 8.0 18.0 0.00 0.00 0.00 10 1015.1
20260508001547 72 224 12.0 15.0 0.00 0.00 0.00 9 1015.3
20260508000045 73 181 4.0 14.0 0.00 0.00 0.00 10 1015.3
20260507234552 72 232 7.0 15.0 0.00 0.00 0.00 9 1015.4
20260507231547 73 263 6.0 14.0 0.00 0.00 0.00 10 1015.6
20260507230039 74 223 2.0 11.0 0.00 0.00 0.00 11 1015.7
20260507224536 72 139 1.0 8.0 0.00 0.00 0.00 13 1015.9
20260507221533 72 275 5.0 14.0 0.00 0.00 0.00 15 1016.1
20260507220031 73 244 5.0 15.0 0.00 0.00 0.00 16 1016.3
20260507214528 73 253 8.0 15.0 0.00 0.00 0.00 18 1016.4
20260507213127 72 228 7.0 14.0 0.00 0.00 0.00 18 1016.5
20260507211522 71 229 8.0 20.0 0.00 0.00 0.00 19 1016.8
20260507210026 70 191 6.0 12.0 0.00 0.00 0.00 18 1017.1
20260507204517 70 309 5.0 12.0 0.00 0.00 0.00 14 1017.3
20260507203116 70 320 3.0 10.0 0.00 0.00 0.00 11 1017.5
20260507201512 69 296 7.0 12.0 0.00 0.00 0.00 13 1017.7
20260507200011 67 298 6.0 13.0 0.00 0.00 0.00 13 1017.8
20260507194506 67 321 5.0 15.0 0.00 0.00 0.00 13 1018.0
20260507193003 66 321 5.0 12.0 0.00 0.00 0.00 10 1018.2
20260507191600 65 341 7.0 14.0 0.00 0.00 0.00 17 1018.3
20260507184557 63 281 10.0 14.0 0.00 0.00 0.00 16 1018.5
20260507183051 62 296 10.0 15.0 0.00 0.00 0.00 16 1018.7
20260507181547 61 321 10.0 16.0 0.00 0.00 0.00 18 1018.9
20260507180047 60 320 5.0 18.0 0.00 0.00 0.00 22 1019.0
20260507174543 60 336 11.0 22.0 0.00 0.00 0.00 23 1019.2
20260507173043 58 360 9.0 19.0 0.00 0.00 0.00 23 1019.4
20260507171536 56 351 8.0 19.0 0.00 0.00 0.00 27 1019.8
20260507170028 55 311 11.0 18.0 0.00 0.00 0.00 29 1019.8
20260507164524 53 318 9.0 17.0 0.00 0.00 0.00 37 1019.9
20260507163018 51 330 10.0 16.0 0.00 0.00 0.00 42 1020.1
20260507161521 50 338 9.0 14.0 0.00 0.00 0.00 45 1020.3
20260507160010 48 324 9.0 20.0 0.00 0.00 0.00 47 1020.4
20260507154507 46 295 10.0 16.0 0.00 0.00 0.00 50 1020.6
20260507153002 45 319 10.0 16.0 0.00 0.00 0.00 55 1020.6
20260507151558 44 321 11.0 16.0 0.00 0.00 0.00 58 1020.6
20260507150054 43 348 9.0 16.0 0.00 0.00 0.00 63 1020.6
20260507144613 42 329 7.0 15.0 0.00 0.00 0.00 67 1020.8
20260507143048 40 336 7.0 14.0 0.00 0.00 0.00 72 1020.9
20260507141543 39 13 8.0 13.0 0.00 0.00 0.00 77 1020.9
20260507140036 38 344 8.0 14.0 0.00 0.00 0.00 78 1021.1
20260507134511 37 344 5.0 10.0 0.00 0.00 0.00 81 1021.1
20260507133004 36 348 6.0 12.0 0.00 0.00 0.00 83 1021.0
20260507131600 34 321 4.0 9.0 0.00 0.00 0.00 87 1021.2
20260507130105 32 15 2.0 4.0 0.00 0.00 0.00 88 1021.2
20260507124551 31 101 1.0 2.0 0.00 0.00 0.00 89 1021.2
20260507123049 31 101 1.0 2.0 0.00 0.00 0.00 90 1021.2
20260507121545 31 101 1.0 3.0 0.00 0.00 0.00 90 1021.1
20260507120040 31 101 1.0 3.0 0.00 0.00 0.00 89 1021.1
20260507114538 31 101 0.0 2.0 0.00 0.00 0.00 89 1021.3
20260507113035 32 101 0.0 0.0 0.00 0.00 0.00 88 1021.2
20260507111541 32 101 0.0 3.0 0.00 0.00 0.00 88 1021.1
20260507110033 33 101 3.0 6.0 0.00 0.00 0.00 88 1021.1
20260507104531 33 124 2.0 6.0 0.00 0.00 0.00 86 1021.2
20260507103032 33 124 2.0 4.0 0.00 0.00 0.00 85 1021.2
20260507101537 33 124 2.0 7.0 0.00 0.00 0.00 85 1021.2
20260507100034 33 106 3.0 6.0 0.00 0.00 0.00 84 1021.1
20260507094537 33 120 3.0 8.0 0.00 0.00 0.00 84 1021.1
20260507093022 33 157 3.0 8.0 0.00 0.00 0.00 82 1021.2
20260507091526 34 148 1.0 2.0 0.00 0.00 0.00 80 1021.1
20260507090018 35 148 0.0 5.0 0.00 0.00 0.00 78 1021.1
20260507084517 36 148 3.0 6.0 0.00 0.00 0.00 77 1021.0
20260507083007 36 83 2.0 4.0 0.00 0.00 0.00 76 1020.9
20260507081513 37 83 0.0 1.0 0.00 0.00 0.00 75 1020.8
20260507080001 38 83 2.0 3.0 0.00 0.00 0.00 74 1020.8
20260507074558 38 83 0.0 2.0 0.00 0.00 0.00 73 1020.7
20260507073101 39 83 0.0 4.0 0.00 0.00 0.00 71 1020.6
20260507071557 40 83 1.0 3.0 0.00 0.00 0.00 70 1020.5
20260507070059 39 83 2.0 8.0 0.00 0.00 0.00 72 1020.6
20260507064551 40 73 2.0 8.0 0.00 0.00 0.00 71 1020.4
20260507063050 40 346 2.0 6.0 0.00 0.00 0.00 71 1019.9